This is the latest recevied weather packets stored in our database for station/object BARLOW-WX. If no packets are shown the sender has not sent any weather packets the latest 10 day(s).
| Time | Temp. | Humidity | Pressure | Rain* | Wind** | Luminosity | Snow |
|---|---|---|---|---|---|---|---|
| 1788148882 | 21.11° C | 81% | 987.9 hPa | 0 mm | - | - | - |
| 1788147977 | 21.11° C | 74% | 986.8 hPa | 0 mm | - | - | - |
| 1788147391 | 21.11° C | 74% | 986.8 hPa | 0 mm | - | - | - |
| 1788146182 | 21.11° C | 79% | 987.1 hPa | 0 mm | - | - | - |
| 1788145282 | 21.67° C | 79% | 987.1 hPa | 0 mm | - | - | - |
| 1788144380 | 21.67° C | 81% | 987.2 hPa | 0 mm | - | - | - |
| 1788143481 | 21.67° C | 79% | 987.7 hPa | 0 mm | - | - | - |
| 1788142580 | 21.67° C | 79% | 987.7 hPa | 0 mm | - | - | - |
| 1788141990 | 21.67° C | 79% | 987.7 hPa | 0 mm | - | - | - |
| 1788140780 | 21.67° C | 83% | 986.7 hPa | 0 mm | - | - | - |
| 1788139882 | 21.67° C | 83% | 986.7 hPa | 0 mm | - | - | - |
| 1788138076 | 22.22° C | 83% | 986.7 hPa | 0 mm | - | - | - |
| 1788137180 | 22.22° C | 80% | 987.2 hPa | 0 mm | - | - | - |
| 1788136279 | 22.78° C | 77% | 987.2 hPa | 0 mm | - | - | - |
| 1788135378 | 22.78° C | 77% | 987.2 hPa | 0 mm | - | - | - |
| 1788134491 | 23.33° C | 77% | 987.2 hPa | 0 mm | - | - | - |
| 1788132683 | 23.89° C | 70% | 987.5 hPa | 0 mm | - | - | - |
| 1788131779 | 23.89° C | 70% | 987.5 hPa | 0 mm | - | - | - |
| 1788130883 | 24.44° C | 70% | 987.5 hPa | 0 mm | - | - | - |
| 1788129982 | 24.44° C | 63% | 988 hPa | 0 mm | - | - | - |
| 1788129083 | 25.56° C | 68% | 988.4 hPa | 0 mm | - | - | - |
| 1788128183 | 25° C | 68% | 988.3 hPa | 0 mm | - | - | - |
| 1788127288 | 25° C | 68% | 988.3 hPa | 0 mm | - | - | - |
| 1788126382 | 25.56° C | 66% | 987.8 hPa | 0 mm | - | - | - |
| 1788125483 | 26.11° C | 64% | 988.2 hPa | 0 mm | - | - | - |
* Rain latest hour (hover to see other rain measurements)
** Current wind speed in m/s (hover to see current wind gust speed)